This demonstration page uses our WeatherBlox Daily Observations layout. Learn more.

40.92945, -100.16068

Hourly Observations for December 31, 2016

Temp ( °F °C ) Dew Point ( °F °C ) Humidity (%) Winds ( mph kmh ) Pressure ( in mb ) Visibility ( mi km ) Precip ( " mm )
12:15 am 00:15 Clear 29 -1.5 19 -7.3 65 65 NW 7 11 29.83 1010 10 16.0934 N/A
12:35 am 00:35 Clear 28 -2.3 19 -7.4 68 68 NW 7 11 29.85 1011 10 16.0934 N/A
12:55 am 00:55 Clear 30 -1.3 20 -6.6 68 68 NNW 9 15 29.83 1010 10 16.0934 N/A
1:15 am 01:15 Clear 30 -1.3 20 -6.5 68 68 NNW 7 11 29.83 1010 10 16.0934 N/A
1:35 am 01:35 Clear 30 -1.1 21 -6.3 68 68 NNW 9 15 29.85 1011 10 16.0934 N/A
1:55 am 01:55 Clear 32 -0.2 21 -6.1 65 65 NNW 10 17 29.85 1011 10 16.0934 N/A
2:15 am 02:15 Clear 32 -0.1 21 -6 65 65 NNW 12 19 29.85 1011 10 16.0934 N/A
2:35 am 02:35 Clear 32 0.1 21 -6 64 64 NNW 14 22 29.85 1011 10 16.0934 N/A
2:55 am 02:55 Clear 32 -0.2 21 -6 65 65 NNW 14 22 29.85 1011 10 16.0934 N/A
3:15 am 03:15 Clear 32 0 22 -5.7 66 66 NW 12 19 29.88 1012 10 16.0934 N/A
3:35 am 03:35 Clear 31 -0.3 22 -5.6 68 68 NW 14 22 29.88 1012 10 16.0934 N/A
3:55 am 03:55 Clear 30 -1.2 22 -5.7 72 72 NW 12 19 29.88 1012 10 16.0934 N/A
4:15 am 04:15 Clear 30 -1.3 22 -5.7 72 72 NNW 12 19 29.88 1012 10 16.0934 N/A
4:35 am 04:35 Clear 30 -1.1 22 -5.5 72 72 NW 12 19 29.88 1012 10 16.0934 N/A
4:55 am 04:55 Clear 27 -2.6 21 -6 78 78 NW 6 9 29.91 1013 10 16.0934 N/A
5:15 am 05:15 Clear 27 -2.7 22 -5.7 80 80 NW 9 15 29.91 1013 10 16.0934 N/A
5:35 am 05:35 Clear 26 -3.3 21 -6 82 82 WNW 9 15 29.91 1013 10 16.0934 N/A
5:55 am 05:55 Clear 27 -2.9 22 -5.6 82 82 WNW 8 13 29.91 1013 10 16.0934 N/A
6:15 am 06:15 Clear 28 -2 23 -5.1 80 80 WNW 8 13 29.94 1014 10 16.0934 N/A
6:35 am 06:35 Clear 29 -1.8 23 -5 79 79 WNW 8 13 29.94 1014 10 16.0934 N/A
6:55 am 06:55 Clear 28 -2 23 -5 80 80 WNW 7 11 29.94 1014 10 16.0934 N/A
7:15 am 07:15 Clear 28 -2.2 23 -5 81 81 WNW 7 11 29.94 1014 10 16.0934 N/A
7:35 am 07:35 Clear 28 -2.5 23 -5.1 83 83 WNW 6 9 29.94 1014 10 16.0934 N/A
7:55 am 07:55 Clear 26 -3.5 22 -5.7 85 85 WNW 7 11 29.97 1015 10 16.0934 N/A
8:15 am 08:15 Sunny 25 -4 20 -6.6 82 82 N 6 9 30 1016 10 16.0934 N/A
8:35 am 08:35 Sunny 25 -3.9 20 -6.8 81 81 NW 6 9 30.03 1017 10 16.0934 N/A
8:55 am 08:55 Sunny 26 -3.1 21 -6.2 79 79 NNW 6 9 30 1016 10 16.0934 N/A
9:15 am 09:15 Sunny 29 -1.8 21 -6 73 73 NW 9 15 30 1016 10 16.0934 N/A
9:35 am 09:35 Sunny 29 -1.5 21 -6.2 71 71 NW 12 19 30.03 1017 10 16.0934 N/A
9:55 am 09:55 Sunny 30 -1 21 -6 69 69 NW 12 19 30.03 1017 10 16.0934 N/A
10:15 am 10:15 Sunny 31 -0.5 21 -6.2 66 66 NW 12 19 30.03 1017 10 16.0934 N/A
10:35 am 10:35 Sunny 32 -0.1 20 -6.7 61 61 NW 10 17 30 1016 10 16.0934 N/A
10:55 am 10:55 Sunny 33 0.5 19 -7.1 57 57 NW 9 15 30 1016 10 16.0934 N/A
11:15 am 11:15 Sunny 35 1.4 19 -7.2 53 53 NNW 10 17 30 1016 10 16.0934 N/A
11:35 am 11:35 Sunny 36 2.2 18 -7.8 48 48 NNW 12 19 30 1016 10 16.0934 N/A
11:55 am 11:55 Sunny 37 2.5 17 -8.6 44 44 NNW 10 17 30 1016 10 16.0934 N/A
12:15 pm 12:15 Sunny 37 3 17 -8.1 44 44 NNW 7 11 29.94 1014 10 16.0934 N/A
12:35 pm 12:35 Sunny 38 3.3 19 -7.1 47 47 W 7 11 29.94 1014 10 16.0934 N/A
12:55 pm 12:55 Sunny 38 3.5 20 -6.7 48 48 WNW 6 9 29.94 1014 10 16.0934 N/A
1:15 pm 13:15 Sunny 39 4 21 -6.3 47 47 WNW 7 11 29.91 1013 10 16.0934 N/A
1:35 pm 13:35 Sunny 39 3.8 21 -6.3 48 48 Calm 29.91 1013 10 16.0934 N/A
1:55 pm 13:55 Sunny 39 3.9 20 -6.6 47 47 WNW 6 9 29.91 1013 10 16.0934 N/A
2:15 pm 14:15 Sunny 39 4.1 20 -6.6 46 46 W 6 9 29.88 1012 10 16.0934 N/A
2:35 pm 14:35 Sunny 40 4.4 20 -6.5 45 45 SW 5 7 29.88 1012 10 16.0934 N/A
2:55 pm 14:55 Sunny 40 4.7 20 -6.7 44 44 SSW 6 9 29.88 1012 10 16.0934 N/A
3:15 pm 15:15 Sunny 41 4.9 19 -7.1 42 42 Calm 29.88 1012 10 16.0934 N/A
3:35 pm 15:35 Sunny 41 5.2 19 -7.2 41 41 S 6 9 29.85 1011 10 16.0934 N/A
3:55 pm 15:55 Sunny 42 5.7 18 -7.6 38 38 S 6 9 29.85 1011 10 16.0934 N/A
4:15 pm 16:15 Sunny 42 5.5 18 -7.9 38 38 SSW 8 13 29.85 1011 10 16.0934 N/A
4:35 pm 16:35 Sunny 41 5 18 -7.6 40 40 SSW 7 11 29.88 1012 10 16.0934 N/A
4:55 pm 16:55 Sunny 39 4.1 20 -6.5 46 46 SSW 8 13 29.88 1012 10 16.0934 N/A
5:15 pm 17:15 Sunny 36 2.4 21 -6.2 53 53 S 7 11 29.88 1012 10 16.0934 N/A
5:35 pm 17:35 Clear 33 0.3 20 -6.7 60 60 S 7 11 29.91 1013 10 16.0934 N/A
8:55 pm 20:55 Clear 31 -0.3 21 -6.1 65 65 S 9 15 29.94 1014 10 16.0934 N/A
9:15 pm 21:15 Clear 29 -1.8 20 -6.6 70 70 S 6 9 29.97 1015 10 16.0934 N/A
9:35 pm 21:35 Clear 31 -0.6 21 -6.3 66 66 S 7 11 29.94 1014 10 16.0934 N/A
9:55 pm 21:55 Clear 32 -0.1 20 -6.6 62 62 S 9 15 29.94 1014 10 16.0934 N/A
10:15 pm 22:15 Clear 31 -0.4 20 -6.6 63 63 S 7 11 29.94 1014 10 16.0934 N/A
10:35 pm 22:35 Clear 32 -0.2 20 -6.7 62 62 S 12 19 29.94 1014 10 16.0934 N/A
10:55 pm 22:55 Clear 31 -0.3 20 -6.9 61 61 S 9 15 29.94 1014 10 16.0934 N/A
11:15 pm 23:15 Clear 32 0 19 -7 60 60 SSW 9 15 29.94 1014 10 16.0934 N/A
11:35 pm 23:35 Clear 32 -0.1 19 -7.1 60 60 SSW 6 9 29.94 1014 10 16.0934 N/A
11:55 pm 23:55 Clear 31 -0.5 19 -7 62 62 SSW 5 7 29.94 1014 10 16.0934 N/A

Powered by AerisWeather